Regional Weather Roundup
Issued by NWS

Home | Current Version | Previous Version | Graphics & Text | Print | Product List | Glossary On
Versions: 1 2 3 4 5 6 7 8 9 10 11 12 13 14 15 16 17 18 19 20 21 22 23 24 25 26 27 28 29 30 31 32 33 34 35 36 37 38 39 40 41 42 43 44 45 46 47 48 49 50
000
ASUS43 KOAX 231310
RWRNE

WEATHER ROUNDUP FOR NEBRASKA
NATIONAL WEATHER SERVICE OMAHA NE
700 AM CST SUN NOV 23 2014

NOTES: SATELLITE DATA IS BEING USED TO AUGMENT CLOUD COVER ABOVE
       12000 FEET.
       "FAIR" INDICATES FEW OR NO CLOUDS BELOW 12,000 FEET WITH NO
       SIGNIFICANT WEATHER AND/OR OBSTRUCTIONS TO VISIBILITY.

  * THESE STATIONS DO NOT REPORT WEATHER SUCH AS RAIN...SNOW OR FOG.

NEZ001>004-019>022-054>056-231400-
NEBRASKA PANHANDLE

CITY           SKY/WX    TMP DP  RH WIND       PRES   REMARKS
SCOTTSBLUFF    PTCLDY    30  21  69 W15       29.73R WCI  19
ALLIANCE       MOCLDY    33  19  56 NW17      29.67R WCI  22
CHADRON        PTCLDY    32  21  64 W15       29.70R WCI  22
KIMBALL        PTCLDY    33  17  52 NW20G28   29.69R WCI  21
SIDNEY         CLOUDY    35  17  47 NW18G29   29.70R WCI  24
$$

NEZ057>060-069>072-079>082-231400-
SOUTHWEST NEBRASKA

CITY           SKY/WX    TMP DP  RH WIND       PRES   REMARKS
NORTH PLATTE   CLOUDY    43  26  51 N18G24    29.61R
IMPERIAL       CLOUDY    42  23  46 N21G31    29.62R
LEXINGTON      CLOUDY    45  33  64 N23G32    29.55R
MCCOOK         CLOUDY    46  27  47 N23G30    29.57R
OGALLALA       CLOUDY    41  27  57 N16       29.64R
$$

NEZ005>010-023>029-035>040-094-231400-
NORTH CENTRAL NEBRASKA

CITY           SKY/WX    TMP DP  RH WIND       PRES   REMARKS
VALENTINE      CLOUDY    40  27  59 NW21G30   29.61R WCI  30
AINSWORTH      CLOUDY    40  29  65 NW17G24   29.60R WCI  32
BROKEN BOW     CLOUDY    43  33  68 N22       29.57R
O`NEILL        CLOUDY    42  37  84 NW14      29.56R
ORD            CLOUDY    43  34  70 NW22G30   29.53R
THEDFORD       CLOUDY    41  30  64 N17       29.61R
$$

NEZ041-046>049-061>064-073>077-083>087-231400-
SOUTH CENTRAL NEBRASKA

CITY           SKY/WX    TMP DP  RH WIND       PRES   REMARKS
AURORA         MOCLDY    46  46 100 NW12      29.49R
HASTINGS       PTCLDY    43  38  82 N15       29.49R
HEBRON         CLOUDY    52  48  88 S5        29.48R
HOLDREGE       CLOUDY    44  34  68 N17G28    29.51R
KEARNEY *      CLOUDY    43  34  70 NW23G31   29.53R
YORK           CLOUDY    48  48 100 SW5       29.47R
$$

NEZ011>018-030>034-042>045-231400-
NORTHEAST NEBRASKA

CITY           SKY/WX    TMP DP  RH WIND       PRES   REMARKS
NORFOLK        CLOUDY    46  38  73 NW18G28   29.47R
ALBION         CLOUDY    44  35  70 NW22G32   29.50R
BLAIR          CLOUDY    53  50  90 S12       29.47R
COLUMBUS *     CLOUDY    46  45  93 W8        29.49R
FREMONT        CLOUDY    52  49  90 S7        29.47R
TEKAMAH        CLOUDY    48  46  93 SE6       29.47R
WAYNE          CLOUDY    48  43  81 NW12      29.47R
$$

NEZ050>053-065>068-078-088>093-231400-
SOUTHEAST NEBRASKA

CITY           SKY/WX    TMP DP  RH WIND       PRES   REMARKS
LINCOLN        CLOUDY    54  49  83 S9        29.48R
OMAHA EPPLEY   CLOUDY    53  51  93 S10       29.48R
BEATRICE       CLOUDY    51  51  98 SE5       29.48S FOG
FALLS CITY     LGT RAIN  53  52  96 SE3       29.51S FOG
NEBRASKA CITY  FOG       51  51  99 S7        29.50S VSB 3/4
PLATTSMOUTH    CLOUDY    51  50  95 SE8       29.49S FOG
$$

NEZ044-045-051>053-067-231400-
OMAHA AREA

CITY           SKY/WX    TMP DP  RH WIND       PRES   REMARKS
OMAHA EPPLEY   CLOUDY    53  51  93 S10       29.48R
BLAIR          CLOUDY    53  50  90 S12       29.47R
FREMONT        CLOUDY    52  49  90 S7        29.47R
MILLARD        CLOUDY    54  50  89 S6        29.48R
OFFUTT AFB     CLOUDY    53  51  95 SE10      29.47S
PLATTSMOUTH    CLOUDY    51  50  95 SE8       29.49S FOG
WAHOO          CLOUDY    50  47  90 S6        29.46S
$$


USA.gov is the U.S. government's official web portal to all federal, state and local government web resources and services.